カタログに戻る

CZ-6A DEB

運用中PO
NORAD 60795·DEBRIS·🇨🇳 China

打ち上げ Aug 6, 2024 から Taiyuan Satellite Launch Center

Loading…

次のパス (今後24時間)

TLE

最新Source: Space-Track

元期: Sep 14, 2026, 11:48 UTC

1 60795U 24140FW  26257.49210387  .00000434  00000-0  20727-3 0  9996
2 60795  89.0046 265.8865 0065093 280.5886  78.7974 14.16478028106512

AllMySatでCZ-6A DEBをリアルタイム追跡

Download on the App Store